View from above orbital plane
|
View from above satellite
|
Ground track
|
The orbit data is extracted from the following two-line orbital elements,
1 13758U 83001B 21018.44297930 .00000090 00000-0 74033-4 0 9996
2 13758 82.9099 46.3133 0025922 262.3935 97.4279 13.78796370912082
Epoch (UTC): | 18 January 2021 10:37:53 |
Eccentricity: | 0.0025922 |
inclination: | 82.9099° |
perigee height: | 949 km |
apogee height: | 987 km |
right ascension of ascending node: | 46.3133° |
argument of perigee: | 262.3935° |
revolutions per day: | 13.78796370 |
mean anomaly at epoch: | 97.4279° |
orbit number at epoch: | 91208 |
The dashed part of the orbit path shows where the satellite is in the earth's shadow,
|
|